Home   Weather   Derby   Past weeks

Flag for United Kingdom Past Weather in Derby, England, United Kingdom — Yesterday and Last 2 Weeks

Now
43 °F

Partly cloudy.


Feels Like: 43 °F
Forecast: N/A
Wind: No wind

Location: East Midlands

Current Time: Dec 2, 2016 at 6:14:54 pm

Latest Report: Dec 2, 2016 at 5:20 pm


Visibility: N/A

Pressure: 30.30 "Hg

Humidity: 87%

Dew Point: 39 °F

Location of DerbyLocation

Past Weather in Derby — Graph

°F

Derby Temperature Yesterday

Maximum temperature yesterday: 45 °F (at 12:20 pm)
Minimum temperature yesterday: 37 °F (at 12:20 am)
Average temperature yesterday: 43 °F

High & Low Weather Summary for the Past Weeks

 TemperatureHumidityPressure
High48 °F (Nov 21, 5:20 pm)100% (Nov 19, 10:50 pm)30.57 "Hg (Nov 19, 10:50 pm)
Low27 °F (Nov 29, 5:50 am)53% (Nov 28, 12:50 pm)28.94 "Hg (Nov 20, 5:50 am)
Average41 °F87%29.98 "Hg
* Reported Nov 17 4:20 pm — Dec 2 4:50 pm, Derby, Weather by CustomWeather, © 2016

Note: Actual official high and low records may vary slightly from our data, if they occured in-between our weather recording intervals... More about our weather records

Advertising

Derby Weather History for the Previous 24 Hours

Scroll right to see more
 ConditionsComfort  
Time TempWeatherWind HumidityBarometerVisibility
4:50 pm
Fri, Dec 2
45 °FPassing clouds.No wind81%30.30 "HgN/A
4:20 pm43 °FPassing clouds.No wind87%30.30 "HgN/A
3:50 pm45 °FDrizzle. Partly sunny.No wind81%30.30 "HgN/A
3:20 pm45 °FScattered showers. Partly sunny.No wind81%30.30 "HgN/A
2:50 pm45 °FPartly sunny.No wind81%30.33 "HgN/A
2:20 pm45 °FPartly sunny.No wind81%30.33 "HgN/A
1:50 pm45 °FPartly sunny.No wind81%30.33 "HgN/A
12:50 pm46 °FPartly sunny.No wind76%30.33 "HgN/A
12:20 pm45 °FPartly sunny.No wind81%30.33 "HgN/A
11:50 am45 °FPartly sunny.No wind81%30.33 "HgN/A
11:20 am45 °FPartly sunny.No wind81%30.33 "HgN/A
10:50 am45 °FPartly sunny.No wind76%30.36 "HgN/A
10:20 am45 °FPartly sunny.No wind76%30.33 "HgN/A
9:50 am45 °FPartly sunny.2 mph76%30.33 "HgN/A
9:20 am43 °FPartly sunny.2 mph87%30.33 "HgN/A
8:50 am43 °FPartly sunny.3 mph93%30.33 "HgN/A
8:20 am43 °FPartly sunny.3 mph87%30.33 "HgN/A
7:50 am43 °FPassing clouds.3 mph87%30.33 "HgN/A
7:20 am43 °FPassing clouds.3 mph87%30.33 "HgN/A
6:50 am43 °FPassing clouds.3 mph87%30.33 "HgN/A
6:20 am43 °FPassing clouds.5 mph87%30.33 "HgN/A
5:50 am43 °FPassing clouds.3 mph87%30.33 "HgN/A
5:20 am43 °FPassing clouds.5 mph93%30.33 "HgN/A
4:50 am43 °FPassing clouds.5 mph93%30.33 "HgN/A
4:20 am43 °FPassing clouds.2 mph93%30.33 "HgN/A
3:50 am43 °FOvercast.5 mph93%30.33 "HgN/A
3:20 am43 °FOvercast.5 mph93%30.33 "HgN/A
2:50 am45 °FOvercast.3 mph87%30.33 "HgN/A
2:20 am43 °FPassing clouds.5 mph93%30.33 "HgN/A
1:50 am43 °FPassing clouds.6 mph93%30.33 "Hg6 mi
1:20 am43 °FPassing clouds.7 mph93%30.33 "HgN/A
12:50 am43 °FPassing clouds.7 mph100%30.33 "HgN/A
12:20 am43 °FPassing clouds.9 mph100%30.36 "Hg5 mi
11:50 pm
Thu, Dec 1
43 °FPassing clouds.9 mph93%30.36 "Hg5 mi
11:20 pm43 °FPassing clouds.7 mph93%30.33 "Hg5 mi
10:50 pm41 °FPassing clouds.8 mph100%30.33 "Hg4 mi
10:20 pm41 °FPassing clouds.10 mph93%30.33 "Hg5 mi
9:50 pm43 °FPassing clouds.9 mph93%30.36 "Hg6 mi
9:20 pm43 °FPassing clouds.12 mph93%30.36 "HgN/A
8:50 pm43 °FPassing clouds.10 mph93%30.36 "HgN/A
8:20 pm45 °FPassing clouds.12 mph87%30.36 "HgN/A
7:50 pm45 °FPassing clouds.12 mph87%30.36 "HgN/A
7:20 pm45 °FPassing clouds.12 mph87%30.36 "HgN/A
6:50 pm45 °FPassing clouds.12 mph87%30.36 "HgN/A
6:20 pm45 °FPassing clouds.10 mph87%30.36 "HgN/A
Weather by CustomWeather, © 2016

See weather overviewHow to use our weather pages